TimeEDT,TemperatureF,Dew PointF,Humidity,Sea Level PressureIn,VisibilityMPH,Wind Direction,Wind SpeedMPH,Gust SpeedMPH,PrecipitationIn,Events,Conditions,WindDirDegrees,DateUTC
12:35 AM,33.8,26.6,75,29.81,10.0,WNW,18.4,-,N/A,,Scattered Clouds,290,2013-03-19 04:35:00
12:51 AM,33.8,26.6,75,29.81,10.0,WNW,12.7,21.9,N/A,,Mostly Cloudy,290,2013-03-19 04:51:00
12:53 AM,34.0,27.0,75,29.82,10.0,WNW,17.3,21.9,N/A,,Mostly Cloudy,290,2013-03-19 04:53:00
1:19 AM,33.8,24.8,70,29.81,10.0,West,15.0,-,N/A,,Scattered Clouds,280,2013-03-19 05:19:00
1:53 AM,32.0,21.9,66,29.82,10.0,West,20.7,28.8,N/A,,Clear,270,2013-03-19 05:53:00
2:43 AM,30.2,19.4,64,29.83,10.0,West,20.7,33.4,N/A,,Mostly Cloudy,260,2013-03-19 06:43:00
2:53 AM,30.0,19.9,66,29.85,10.0,West,18.4,33.4,N/A,,Overcast,260,2013-03-19 06:53:00
3:36 AM,28.4,17.6,64,29.86,10.0,West,21.9,36.8,N/A,,Overcast,280,2013-03-19 07:36:00
3:53 AM,27.0,16.0,63,29.88,10.0,West,24.2,36.8,N/A,,Overcast,280,2013-03-19 07:53:00
4:03 AM,26.6,15.8,64,29.87,10.0,West,24.2,31.1,N/A,,Overcast,270,2013-03-19 08:03:00
4:53 AM,26.1,16.0,66,29.88,10.0,West,18.4,26.5,N/A,,Overcast,280,2013-03-19 08:53:00
5:53 AM,26.1,14.0,60,29.90,10.0,West,21.9,33.4,N/A,,Mostly Cloudy,270,2013-03-19 09:53:00
6:53 AM,27.0,16.0,63,29.91,10.0,WSW,19.6,27.6,N/A,,Overcast,250,2013-03-19 10:53:00
7:53 AM,26.1,15.1,63,29.91,10.0,West,23.0,33.4,N/A,,Overcast,280,2013-03-19 11:53:00
8:53 AM,27.0,17.1,66,29.91,10.0,West,13.8,23.0,N/A,,Overcast,280,2013-03-19 12:53:00
9:32 AM,26.6,15.8,64,29.91,10.0,West,25.3,34.5,0.00,,Overcast,260,2013-03-19 13:32:00
9:53 AM,28.0,14.0,56,29.93,10.0,West,23.0,34.5,0.00,,Mostly Cloudy,270,2013-03-19 13:53:00
10:53 AM,28.9,14.0,54,29.94,10.0,West,21.9,38.0,N/A,,Partly Cloudy,270,2013-03-19 14:53:00
11:53 AM,30.0,16.0,56,29.95,10.0,West,23.0,33.4,N/A,,Partly Cloudy,260,2013-03-19 15:53:00
12:53 PM,32.0,18.0,56,29.98,10.0,West,26.5,36.8,N/A,,Overcast,270,2013-03-19 16:53:00
1:53 PM,33.1,18.0,54,29.99,10.0,West,21.9,41.4,N/A,,Mostly Cloudy,280,2013-03-19 17:53:00
2:53 PM,35.1,19.0,52,30.01,10.0,West,21.9,41.4,N/A,,Mostly Cloudy,280,2013-03-19 18:53:00
3:53 PM,36.0,19.9,52,30.01,10.0,West,19.6,40.3,N/A,,Partly Cloudy,280,2013-03-19 19:53:00
4:53 PM,37.9,18.0,45,30.02,10.0,West,26.5,39.1,N/A,,Clear,280,2013-03-19 20:53:00
5:53 PM,37.9,18.0,45,30.04,10.0,West,25.3,35.7,N/A,,Clear,270,2013-03-19 21:53:00
6:53 PM,37.9,19.0,47,30.05,10.0,WNW,16.1,28.8,N/A,,Clear,290,2013-03-19 22:53:00
7:53 PM,36.0,18.0,48,30.06,10.0,West,15.0,23.0,N/A,,Clear,270,2013-03-19 23:53:00
8:53 PM,35.1,19.0,52,30.07,10.0,West,12.7,-,N/A,,Clear,260,2013-03-20 00:53:00
9:53 PM,34.0,19.0,54,30.09,10.0,West,9.2,-,N/A,,Clear,270,2013-03-20 01:53:00
10:53 PM,33.1,19.0,56,30.09,10.0,West,9.2,-,N/A,,Clear,270,2013-03-20 02:53:00
11:53 PM,33.1,19.0,56,30.09,10.0,West,11.5,-,N/A,,Clear,270,2013-03-20 03:53:00